When you browse on this site, cookies collect data to enhance your experience and personalize the content and advertising you see.
Visit our Privacy Policy to learn more. By continuing to use the site, you agree to this use of cookies and data.
  • în România
  • Lista ţărilor
  • Pe 7 zile
  • Temperatura apei
  • Hartă satelitară
  • Meteo pe hartă
  • Widget-uri
  • user-avatar
    Intrare

    Meteo pe oră la Trzebiatów

    Astăzi, 25 Martie, Luni

    Timp Temperatura Precipitaţii Vânt Presiune Umiditate
    00:00 +1°C° 0 mm 4 m/s 762 mmHg 83%
    01:00 0°C° 0 mm 4 m/s 761 mmHg 87%
    02:00 0°C° 0 mm 4 m/s 760 mmHg 88%
    03:00 0°C° 0 mm 4 m/s 759 mmHg 89%
    04:00 -1°C° 0 mm 4 m/s 758 mmHg 90%
    05:00 0°C° 0 mm 4 m/s 758 mmHg 87%
    06:00 0°C° 0 mm 5 m/s 757 mmHg 85%
    07:00 +1°C° 0 mm 4 m/s 757 mmHg 82%
    08:00 +1°C° 0.8 mm 5 m/s 757 mmHg 83%
    09:00 +1°C° 0.8 mm 5 m/s 757 mmHg 85%
    10:00 +2°C° 0.8 mm 5 m/s 757 mmHg 86%
    11:00 +2°C° 0.2 mm 5 m/s 757 mmHg 85%
    12:00 +3°C° 0.2 mm 5 m/s 757 mmHg 83%
    13:00 +3°C° 0.2 mm 5 m/s 758 mmHg 82%
    14:00 +3°C° 0 mm 5 m/s 758 mmHg 83%
    15:00 +4°C° 0 mm 4 m/s 759 mmHg 83%
    16:00 +4°C° 0 mm 4 m/s 759 mmHg 84%
    17:00 +3°C° 0 mm 3 m/s 760 mmHg 86%
    18:00 +2°C° 0 mm 3 m/s 761 mmHg 89%
    19:00 +1°C° 0 mm 3 m/s 761 mmHg 92%
    20:00 +1°C° 0 mm 3 m/s 762 mmHg 91%
    21:00 +1°C° 0 mm 3 m/s 763 mmHg 90%
    22:00 +2°C° 0 mm 2 m/s 764 mmHg 88%
    23:00 +1°C° 0 mm 3 m/s 764 mmHg 89%

    Mâine, 26 Martie, Marţi

    Timp Temperatura Precipitaţii Vânt Presiune Umiditate
    00:00 0°C° 0 mm 4 m/s 764 mmHg 90%
    01:00 0°C° 0 mm 4 m/s 765 mmHg 91%
    02:00 0°C° 0 mm 5 m/s 764 mmHg 91%
    03:00 0°C° 0 mm 5 m/s 764 mmHg 92%
    04:00 -1°C° 0 mm 6 m/s 764 mmHg 92%
    05:00 +1°C° 0 mm 6 m/s 764 mmHg 91%
    06:00 0°C° 0 mm 7 m/s 763 mmHg 89%
    07:00 0°C° 0 mm 8 m/s 763 mmHg 88%
    08:00 +1°C° 0 mm 9 m/s 763 mmHg 83%
    09:00 +2°C° 0 mm 9 m/s 763 mmHg 79%
    10:00 +3°C° 0 mm 10 m/s 763 mmHg 74%
    11:00 +3°C° 0 mm 9 m/s 764 mmHg 73%
    12:00 +4°C° 0 mm 8 m/s 764 mmHg 71%
    13:00 +5°C° 0 mm 8 m/s 764 mmHg 70%
    14:00 +5°C° 0 mm 7 m/s 765 mmHg 68%
    15:00 +5°C° 0 mm 6 m/s 765 mmHg 67%
    16:00 +5°C° 0 mm 6 m/s 765 mmHg 65%
    17:00 +5°C° 0 mm 5 m/s 765 mmHg 70%
    18:00 +4°C° 0 mm 4 m/s 766 mmHg 76%
    19:00 +3°C° 0 mm 4 m/s 766 mmHg 81%
    20:00 +1°C° 0 mm 4 m/s 766 mmHg 79%
    21:00 +2°C° 0 mm 3 m/s 767 mmHg 77%
    22:00 +2°C° 0 mm 3 m/s 767 mmHg 75%
    23:00 +2°C° 0 mm 3 m/s 767 mmHg 75%

    Poimâine, 27 Martie, Miercuri

    Timp Temperatura Precipitaţii Vânt Presiune Umiditate
    00:00 +2°C° 0 mm 3 m/s 767 mmHg 76%
    01:00 +2°C° 0 mm 3 m/s 767 mmHg 76%
    02:00 +1°C° 0 mm 4 m/s 767 mmHg 79%
    03:00 +1°C° 0 mm 4 m/s 767 mmHg 82%
    04:00 +2°C° 0 mm 5 m/s 767 mmHg 85%
    05:00 +2°C° 0.1 mm 5 m/s 767 mmHg 87%
    06:00 +2°C° 0.1 mm 6 m/s 767 mmHg 90%
    07:00 +3°C° 0.1 mm 6 m/s 767 mmHg 92%
    08:00 +3°C° 0.2 mm 6 m/s 767 mmHg 91%
    09:00 +3°C° 0.2 mm 6 m/s 767 mmHg 90%
    10:00 +4°C° 0.2 mm 6 m/s 767 mmHg 89%
    11:00 +5°C° 0.1 mm 5 m/s 767 mmHg 89%
    12:00 +5°C° 0.1 mm 5 m/s 768 mmHg 89%
    13:00 +6°C° 0.1 mm 5 m/s 768 mmHg 89%
    14:00 +6°C° 0.1 mm 5 m/s 768 mmHg 90%
    15:00 +6°C° 0.1 mm 4 m/s 768 mmHg 91%
    16:00 +6°C° 0.1 mm 4 m/s 768 mmHg 93%
    17:00 +6°C° 0.1 mm 4 m/s 768 mmHg 93%
    18:00 +7°C° 0.1 mm 3 m/s 768 mmHg 94%
    19:00 +7°C° 0.1 mm 3 m/s 768 mmHg 95%
    20:00 +7°C° 0.1 mm 2 m/s 769 mmHg 94%
    21:00 +7°C° 0.1 mm 2 m/s 769 mmHg 92%
    22:00 +7°C° 0.1 mm 2 m/s 769 mmHg 90%
    23:00 +6°C° 0 mm 2 m/s 769 mmHg 90%

    28 Martie, Joi

    Timp Temperatura Precipitaţii Vânt Presiune Umiditate
    00:00 +6°C° 0 mm 2 m/s 770 mmHg 89%
    01:00 +6°C° 0 mm 2 m/s 770 mmHg 88%
    02:00 +7°C° 0 mm 1 m/s 770 mmHg 88%
    03:00 +7°C° 0 mm 1 m/s 771 mmHg 88%
    04:00 +7°C° 0 mm 1 m/s 771 mmHg 88%
    05:00 +7°C° 0 mm 1 m/s 771 mmHg 87%
    06:00 +6°C° 0 mm 2 m/s 772 mmHg 87%
    07:00 +6°C° 0 mm 2 m/s 772 mmHg 87%
    08:00 +7°C° 0 mm 2 m/s 772 mmHg 81%
    09:00 +9°C° 0 mm 2 m/s 773 mmHg 75%
    10:00 +10°C° 0 mm 2 m/s 773 mmHg 69%
    11:00 +10°C° 0 mm 2 m/s 773 mmHg 66%
    12:00 +12°C° 0 mm 2 m/s 774 mmHg 63%
    13:00 +13°C° 0 mm 2 m/s 774 mmHg 60%
    14:00 +11°C° 0 mm 3 m/s 774 mmHg 62%
    15:00 +11°C° 0 mm 3 m/s 774 mmHg 63%
    16:00 +11°C° 0 mm 3 m/s 774 mmHg 64%
    17:00 +9°C° 0 mm 2 m/s 774 mmHg 71%
    18:00 +8°C° 0 mm 2 m/s 774 mmHg 77%
    19:00 +6°C° 0 mm 2 m/s 774 mmHg 83%
    20:00 +6°C° 0 mm 2 m/s 774 mmHg 85%
    21:00 +5°C° 0 mm 3 m/s 774 mmHg 87%
    22:00 +5°C° 0 mm 3 m/s 774 mmHg 89%
    23:00 +5°C° 0 mm 4 m/s 775 mmHg 91%

    29 Martie, Vineri

    Timp Temperatura Precipitaţii Vânt Presiune Umiditate
    00:00 +5°C° 0 mm 4 m/s 775 mmHg 93%
    01:00 +5°C° 0 mm 4 m/s 775 mmHg 95%
    02:00 +5°C° 0 mm 4 m/s 775 mmHg 96%
    03:00 +4°C° 0 mm 4 m/s 774 mmHg 97%
    04:00 +4°C° 0 mm 4 m/s 774 mmHg 97%
    05:00 +5°C° 0 mm 4 m/s 774 mmHg 96%
    06:00 +5°C° 0 mm 4 m/s 774 mmHg 95%
    07:00 +6°C° 0 mm 4 m/s 775 mmHg 94%
    08:00 +7°C° 0 mm 4 m/s 775 mmHg 89%
    09:00 +8°C° 0 mm 4 m/s 775 mmHg 84%
    10:00 +11°C° 0 mm 4 m/s 775 mmHg 78%
    11:00 +10°C° 0 mm 5 m/s 774 mmHg 74%
    12:00 +12°C° 0 mm 5 m/s 774 mmHg 71%
    13:00 +13°C° 0 mm 5 m/s 774 mmHg 67%
    14:00 +13°C° 0 mm 5 m/s 773 mmHg 67%
    15:00 +13°C° 0 mm 5 m/s 773 mmHg 67%
    16:00 +13°C° 0 mm 5 m/s 772 mmHg 67%
    17:00 +11°C° 0 mm 4 m/s 772 mmHg 73%
    18:00 +10°C° 0 mm 4 m/s 772 mmHg 78%
    19:00 +8°C° 0 mm 3 m/s 772 mmHg 83%
    20:00 +8°C° 0 mm 3 m/s 772 mmHg 85%
    21:00 +8°C° 0 mm 3 m/s 772 mmHg 87%
    22:00 +7°C° 0 mm 4 m/s 772 mmHg 89%
    23:00 +7°C° 0 mm 4 m/s 772 mmHg 90%

    30 Martie, Sâmbătă

    Timp Temperatura Precipitaţii Vânt Presiune Umiditate
    00:00 +6°C° 0 mm 4 m/s 771 mmHg 92%
    01:00 +6°C° 0 mm 4 m/s 771 mmHg 93%
    02:00 +6°C° 0 mm 4 m/s 771 mmHg 93%
    03:00 +5°C° 0 mm 4 m/s 771 mmHg 93%
    04:00 +5°C° 0 mm 4 m/s 770 mmHg 93%
    05:00 +5°C° 0 mm 4 m/s 770 mmHg 92%
    06:00 +6°C° 0 mm 4 m/s 770 mmHg 91%
    07:00 +6°C° 0 mm 5 m/s 770 mmHg 89%
    08:00 +8°C° 0 mm 5 m/s 770 mmHg 84%
    09:00 +10°C° 0 mm 5 m/s 769 mmHg 79%
    10:00 +12°C° 0 mm 5 m/s 769 mmHg 74%
    11:00 +13°C° 0 mm 5 m/s 768 mmHg 70%
    12:00 +14°C° 0 mm 5 m/s 768 mmHg 67%
    13:00 +15°C° 0 mm 5 m/s 767 mmHg 64%
    14:00 +15°C° 0 mm 5 m/s 766 mmHg 63%
    15:00 +15°C° 0 mm 5 m/s 765 mmHg 63%
    16:00 +15°C° 0 mm 5 m/s 764 mmHg 63%
    17:00 +14°C° 0 mm 4 m/s 764 mmHg 66%
    18:00 +13°C° 0 mm 4 m/s 764 mmHg 70%
    19:00 +11°C° 0 mm 3 m/s 763 mmHg 73%
    20:00 +11°C° 0 mm 3 m/s 763 mmHg 76%
    21:00 +10°C° 0 mm 4 m/s 763 mmHg 79%
    22:00 +8°C° 0 mm 4 m/s 762 mmHg 82%
    23:00 +8°C° 0 mm 4 m/s 762 mmHg 83%
    Arată mai mult